CAPE
10 29 29 15 1 0 0 0 1 1 1 0 0 0 0 2 10 15 10 21 15 9 10 15 23 15 6 0 9 21 22 17 23 21 8 10 32 91 246 346 318 220 209
31 29 41 27 0 0 0 0 0 2 4 3 0 0 0 4 6 13 7 6 7 9 7 8 7 8 23 27 6 7 16 24 17 9 15 5 1 51 261 422 387 159 134
30 35 43 10 0 0 0 0 0 1 10 10 3 0 1 1 5 11 4 10 11 10 14 7 5 7 9 16 15 18 5 12 15 14 27 9 18 44 403 530 432 310 187
27 11 3 0 0 0 0 0 0 2 9 12 10 6 2 1 3 10 14 0 0 6 11 14 5 2 5 31 21 23 27 40 31 28 4 2 17 31 295 535 454 369 189
0 0 0 0 0 0 0 0 0 0 6 12 15 16 14 6 2 0 0 0 0 0 4 8 8 7 0 0 1 15 31 60 114 6 3 7 96 257 412 521 429 482 364
0 0 4 3 2 0 3 6 5 4 9 0 4 17 19 18 0 0 0 0 0 0 4 10 13 0 3 0 0 0 0 40 94 45 141 127 257 383 453 478 492 567 386
0 16 30 24 18 25 32 48 54 54 68 70 61 44 28 21 2 0 0 0 0 0 2 26 1 2 8 51 7 0 0 0 0 0 0 44 169 278 332 323 309 404 337
32 37 32 16 4 17 30 57 117 114 91 122 142 122 72 32 1 0 0 0 0 3 3 21 1 8 20 39 60 12 24 12 9 6 43 51 129 304 406 335 257 374 298
44 77 99 84 64 59 49 57 148 139 151 52 114 156 105 94 20 0 0 0 0 4 21 35 33 40 1 0 0 0 9 5 33 2 0 0 0 0 0 62 52 130 61
6 14 93 149 160 150 160 163 192 189 184 146 115 131 147 111 57 0 0 0 0 3 28 30 10 14 0 0 0 1 47 103 143 69 24 19 2 6 0 4 116 243 94
0 0 3 0 0 31 18 99 64 84 95 122 140 138 163 207 173 5 0 0 0 1 12 24 36 0 0 0 0 0 20 0 15 72 137 292 250 189 254 29 61 126 96
0 0 0 0 0 0 0 3 1 0 0 7 9 65 97 93 0 0 0 0 0 0 0 11 12 0 0 0 0 0 0 0 0 6 112 120 204 280 230 143 180 295 162
0 0 0 0 0 0 0 0 0 0 0 0 0 0 0 0 0 0 0 0 0 0 0 0 0 0 0 0 0 0 0 0 0 12 155 94 220 228 207 150 78 224 44
0 0 0 0 0 0 0 0 0 1 0 0 0 0 0 0 0 0 0 0 0 0 0 0 0 0 0 0 0 0 0 0 0 32 138 132 104 176 80 65 93 23 12
0 0 0 0 0 0 0 0 0 0 0 0 0 0 0 0 0 0 0 0 0 0 0 0 3 26 30 25 10 12 8 26 30 170 203 115 30 51 90 66 80 6 17
0 0 0 0 0 0 0 0 0 0 0 0 0 0 0 0 0 0 0 0 0 0 0 0 0 3 18 16 36 36 31 23 38 50 141 47 56 95 75 106 120 55 33
0 0 0 0 0 0 0 0 0 0 0 0 0 0 0 0 0 0 0 0 0 0 1 2 0 1 19 52 79 59 35 55 42 72 14 50 23 60 61 129 109 63 48
0 0 0 0 0 0 0 0 0 0 0 0 0 0 0 0 0 0 0 0 0 0 0 0 0 0 0 0 0 40 16 93 80 38 128 77 43 45 74 99 53 80 100
0 0 0 0 0 0 0 0 0 0 0 0 0 0 0 0 0 0 0 0 0 0 0 0 0 0 0 1 0 0 0 10 76 56 77 99 34 53 97 165 77 44 95
0 0 0 0 0 0 0 0 0 0 0 0 0 0 0 0 0 0 0 0 0 0 0 0 0 0 0 0 0 0 0 0 1 89 10 127 40 28 66 155 129 60 60
0 0 0 0 0 0 0 0 0 0 0 0 0 0 0 0 0 2 2 2 2 0 0 0 0 0 0 0 0 0 0 1 1 0 90 68 118 27 56 62 75 28 48
0 0 0 0 0 0 0 0 0 0 1 0 0 0 0 0 0 0 5 0 0 6 4 3 0 0 0 0 0 0 0 1 1 1 0 31 161 138 23 85 64 35 48
0 0 0 0 0 0 2 1 0 3 1 0 1 1 0 0 0 5 5 6 8 5 3 5 3 0 0 0 7 0 0 0 1 1 0 0 0 113 78 72 80 38 38
0 0 0 0 1 0 0 2 1 1 2 2 3 0 2 4 3 9 8 7 3 5 4 6 5 2 4 4 1 3 1 0 0 0 0 1 2 0 14 122 82 38 49
0 0 0 0 1 2 4 5 4 5 6 10 7 8 10 5 4 14 14 7 12 6 3 8 5 2 1 2 0 2 0 1 0 0 0 0 0 0 0 11 159 140 53
0 0 1 3 5 5 7 9 9 10 9 10 16 15 11 19 7 16 10 7 6 5 2 2 5 5 4 0 1 0 0 0 0 0 0 1 0 0 0 0 55 43 1
CIN
-2 -1 -1 -1 -1 0 0 0 -1 0 0 -1 0 0 0 -2 -1 -1 -2 -3 -2 -1 -6 -7 -2 -2 -1 0 -2 -5 -2 -2 0 -2 -2 -2 -15 -1 -2 -1 0 0 -6
-2 -2 -2 -1 0 0 0 0 -1 -1 -1 -1 0 0 0 -1 -1 -1 -7 -4 -3 -1 -2 -4 -9 -7 -1 -1 -2 -5 -1 -2 -1 -2 -1 -1 -1 0 -5 0 -1 -1 -2
-2 -3 -3 -1 0 0 0 0 0 0 -1 -2 -1 0 -1 -1 -1 -1 -4 -1 -1 -1 0 -1 -1 -5 -4 -1 -2 -2 -3 -2 -3 -2 -1 -1 -2 -1 -1 0 -1 -1 -2
-4 -2 -1 0 0 0 0 0 0 -1 -1 -1 -1 -1 -2 -1 -1 -1 -1 0 -1 -1 -2 -1 -1 -8 -4 -1 -1 0 -1 -1 -3 -1 -1 0 -2 -2 -5 -1 -4 -6 -2
-1 0 0 0 0 0 0 0 0 0 -1 -1 -1 -1 -1 -1 -1 -1 0 0 0 0 -2 -2 -1 -1 0 0 0 -2 0 -14 -1 -4 -4 0 -3 -3 -1 -7 -4 -8 -16
0 0 -3 -1 -1 0 -10 -20 -24 -22 -12 0 -1 -2 -1 -2 0 0 0 0 0 0 -3 -3 -1 -1 -15 0 0 0 0 -11 -8 -11 0 0 -1 -3 -7 -6 -7 -3 -5
-1 -3 -2 -2 -14 -12 -7 -10 -15 -10 -8 -15 -16 -1 -1 -2 -3 0 0 0 0 0 -4 -1 -1 -1 -7 -1 -24 0 0 0 0 0 0 -12 0 -1 -2 -4 -5 -2 -1
-3 -1 -3 -12 -28 -23 -22 -26 -9 -4 -7 -11 -3 -2 -1 -2 -3 0 0 0 0 -5 -9 -1 -2 0 -1 -4 0 -4 -29 -5 -14 -18 -12 -17 -5 0 0 -1 -1 0 -6
-2 -2 -2 -3 -12 -21 -36 -38 -17 -6 -11 -44 -5 -2 -4 -1 -6 0 0 0 0 -7 -2 -2 -3 -1 -1 0 0 0 -1 -6 -7 -10 0 0 0 0 0 -21 -46 -1 -11
-99 -83 -21 -3 -3 -7 -3 -4 -4 -3 -2 -1 -2 -1 -1 -8 -15 0 0 0 0 -4 -2 -7 -12 -14 0 0 0 -1 0 -1 -2 -10 -34 0 -1 -2 0 -18 -12 0 -9
0 -1 -2 0 0 -9 -24 -25 -28 -10 -6 -5 -2 -3 -4 -5 -3 -53 0 0 0 -1 -2 -10 -9 -8 0 0 0 0 0 0 -2 -6 -2 -2 -3 -5 0 -19 -14 0 -15
0 0 0 0 -1 0 0 -2 -1 0 0 -21 -9 -14 -12 -43 0 0 0 0 0 0 0 -3 -35 0 0 0 0 0 0 0 0 -7 -3 -4 -2 0 -2 -6 -3 0 0
0 0 0 0 0 0 0 0 0 0 0 0 0 0 0 0 0 0 0 0 0 0 0 0 0 0 0 0 0 0 0 0 0 -2 -1 -9 -2 -1 -2 -3 -1 0 0
0 0 0 0 0 0 0 0 0 -12 -1 0 0 0 0 0 0 0 0 0 0 0 0 0 0 0 0 0 0 0 0 0 0 -4 -1 -2 -10 0 -2 -5 0 -2 -1
0 0 0 0 0 0 0 0 0 0 0 0 0 0 0 0 0 0 0 0 0 0 0 0 -2 -5 -6 -4 -3 -7 -6 -4 -8 -3 -3 -12 -3 -6 0 -3 -2 -1 -2
0 0 0 0 0 0 0 0 0 0 0 0 0 0 0 0 0 0 0 0 0 0 0 0 0 -1 -1 -11 -12 -5 -9 -15 -3 -11 -2 -8 -2 -4 -5 -1 -1 -1 -3
0 0 0 0 0 0 0 0 0 0 0 0 0 0 0 0 0 0 0 0 0 0 0 0 0 -8 0 -1 -4 -14 -6 -3 -32 -5 -34 -10 -19 -16 -9 -1 -1 -1 -3
0 0 0 0 0 0 0 0 0 0 0 0 0 0 0 0 0 0 0 0 0 0 0 0 0 0 0 0 0 -17 -32 -3 -4 -17 -4 -4 -20 -19 -7 -1 -6 -2 0
0 0 0 0 0 0 0 0 0 0 0 0 0 0 0 0 0 0 0 0 0 0 0 0 0 0 0 0 0 0 0 -33 -4 -18 -9 -12 -9 -15 -3 -3 -6 -7 -3
0 0 0 0 0 0 0 0 0 0 0 0 0 0 0 0 0 0 0 0 0 0 0 0 0 0 0 0 0 0 0 0 -12 -3 -65 -13 -15 -16 -7 -17 -4 -13 -8
0 0 0 0 0 0 0 0 0 0 0 0 -5 0 0 0 0 -8 -5 -9 -7 0 0 0 0 0 0 0 0 0 0 0 0 0 -13 -38 -14 -12 -19 -2 -2 -3 -14
0 0 0 0 0 -1 -5 0 0 -9 -8 -7 -7 0 0 0 -10 -5 -4 -8 -5 -3 -4 -6 -4 0 -2 0 0 0 0 0 0 0 0 -41 -4 -9 -15 -12 -3 -3 -8
0 0 0 0 -6 0 -6 -4 -9 -10 -12 -9 -10 -12 -11 -8 0 -4 -4 -3 -1 -3 -2 -2 -2 -1 0 -1 -2 0 0 0 0 0 0 0 0 -10 -9 -5 -3 -4 -4
0 0 0 0 -8 -1 -1 -10 -9 -12 -9 -9 -9 -9 -10 -7 -3 -3 -3 -2 -2 -2 -2 -1 -1 -1 -1 -2 -4 0 -5 0 0 0 0 0 0 0 -12 -4 -14 -3 -23
0 0 0 0 -8 -7 -7 -9 -6 -6 -7 -9 -7 -8 -6 -12 -5 -3 -2 -3 -2 -2 -2 -1 -2 -1 -2 -2 -2 -2 0 -9 0 0 0 0 0 0 0 -21 -4 -12 -4
0 0 -8 -7 -8 -8 -6 -8 -8 -8 -6 -7 -5 -7 -7 -7 -4 -4 -2 -3 -2 -2 -2 -3 -2 -1 -1 -3 -2 -1 0 0 0 0 0 0 0 0 0 0 -20 -18 -8
Wind_Speed
15 17 18 20 21 23 20 19 20 21 21 22 22 20 20 19 17 16 14 10 12 13 8 4 5 5 5 5 6 10 12 5 23 25 21 23 21 22 22 17 12 11 4
16 18 20 20 23 24 21 20 21 22 22 22 23 21 20 19 18 16 14 13 10 10 5 2 2 3 4 6 8 8 9 11 13 15 5 17 12 11 16 11 6 5 15
21 20 17 19 22 23 23 21 22 22 21 21 23 23 21 20 18 16 13 12 10 6 5 0 2 3 4 5 6 7 7 6 7 10 9 13 17 4 10 8 8 10 9
21 20 19 20 21 23 23 23 23 23 23 22 23 23 23 21 20 16 15 16 9 5 6 3 2 4 4 4 4 3 3 3 4 4 2 3 8 5 6 8 6 6 4
19 18 17 18 19 21 22 23 23 23 23 23 24 24 25 24 19 21 20 17 10 5 4 6 3 3 4 4 4 4 4 3 3 4 3 3 11 14 6 7 8 5 2
16 16 18 19 20 21 22 22 23 24 24 25 25 24 26 25 23 22 20 17 12 6 3 3 10 3 1 4 3 3 3 3 3 3 2 3 5 6 11 7 7 6 8
16 17 17 17 19 20 20 20 21 23 24 24 23 23 24 25 25 21 19 20 16 7 2 7 8 6 10 2 2 2 2 3 4 2 5 11 7 10 19 15 12 14 17
15 17 18 17 16 18 21 23 25 22 23 24 24 23 24 25 23 22 22 25 23 8 4 7 7 6 9 14 6 3 2 3 5 3 2 6 5 10 9 13 18 17 19
17 21 23 21 19 17 18 21 22 24 22 21 20 23 23 24 23 22 24 28 28 21 8 7 5 6 14 17 17 2 5 5 3 4 5 8 4 6 7 11 12 13 14
23 24 24 26 24 23 22 22 23 22 20 19 16 17 21 22 21 21 22 27 29 23 20 8 6 7 12 15 18 19 11 5 5 6 8 7 8 9 7 4 3 5 9
27 27 26 27 28 28 31 31 33 30 27 25 25 21 19 19 18 17 18 23 26 27 23 24 12 7 12 12 13 19 21 25 5 5 6 9 11 7 7 7 11 10 8
28 28 29 29 29 30 32 31 32 33 33 31 33 31 29 28 32 22 18 19 24 27 27 24 16 12 12 13 10 13 21 24 3 7 5 8 9 4 6 8 7 9 10
28 29 28 30 30 32 32 32 32 30 32 32 32 32 32 29 27 29 31 34 32 29 26 26 23 20 22 21 4 2 17 21 9 4 8 3 9 7 8 10 12 12 10
32 32 31 31 34 33 34 33 35 33 33 33 34 34 34 33 35 36 37 36 36 34 32 32 26 20 24 34 28 15 8 15 17 20 14 6 14 12 10 10 10 12 12
34 33 32 33 33 34 33 34 34 33 33 36 35 32 34 34 35 37 37 37 36 37 38 35 31 22 21 23 17 15 12 11 12 23 18 8 9 10 9 8 9 10 11
34 33 33 33 34 33 34 34 30 28 30 30 27 29 31 29 37 39 39 39 39 39 37 38 37 34 33 27 28 27 20 17 19 18 17 8 8 10 7 7 7 7 9
34 33 33 33 34 34 34 34 36 33 30 29 24 25 28 32 37 40 40 40 36 32 33 34 36 37 36 34 29 31 33 14 13 18 24 11 10 10 6 6 8 9 11
35 32 32 35 35 34 35 34 34 36 37 35 26 26 28 32 39 41 40 36 32 32 33 34 34 35 35 35 33 33 32 32 15 16 12 15 10 7 6 7 8 13 12
34 34 35 35 34 35 33 34 34 35 36 35 33 32 21 37 40 39 35 31 35 34 33 35 35 36 36 36 35 34 31 35 29 20 23 12 12 2 5 7 10 15 16
36 35 33 33 34 34 34 34 34 35 34 34 34 34 33 38 38 34 33 33 34 35 35 36 34 35 36 36 37 36 34 33 30 23 27 14 15 15 23 9 7 12 23
35 35 35 32 33 34 33 33 34 32 33 33 33 32 31 35 33 34 34 35 35 37 37 37 38 35 34 35 36 38 36 34 32 28 24 30 16 22 25 29 10 13 7
33 36 36 34 33 32 32 33 29 31 31 32 33 32 29 28 32 34 34 35 35 35 37 38 39 39 38 36 35 39 40 38 34 29 30 30 29 21 30 32 24 26 7
32 36 35 33 31 31 30 30 31 30 31 31 31 32 31 30 31 33 34 34 33 33 33 35 37 39 39 40 37 37 41 41 38 35 34 32 28 28 33 36 33 30 20
34 35 31 31 30 31 30 29 29 28 28 30 31 31 31 29 30 32 34 33 33 33 34 36 37 37 38 39 42 42 40 43 41 38 36 35 32 30 37 36 39 29 30
33 30 28 30 30 30 29 28 28 28 29 29 30 31 33 32 31 32 33 33 34 35 36 37 36 38 39 39 42 44 47 45 48 45 38 38 41 39 35 41 37 38 30
27 27 28 29 29 28 28 27 27 27 28 29 30 31 33 34 32 32 32 34 34 36 37 37 38 39 40 40 39 40 44 47 47 44 41 42 42 44 40 35 45 40 42
Wind_Direction
357 351 346 344 344 344 345 345 346 347 348 350 352 356 360 4 10 13 17 17 26 28 39 51 69 92 141 143 165 191 206 260 297 278 332 326 329 322 317 323 340 338 347
356 349 343 341 340 341 341 341 342 343 345 345 347 350 354 358 3 8 13 18 19 25 34 64 107 139 123 168 172 172 192 202 215 224 235 236 218 1 335 353 23 34 324
345 348 351 344 341 340 339 338 339 341 343 344 344 344 347 351 357 2 10 16 13 13 24 171 178 171 162 148 167 187 169 154 167 201 202 215 222 49 5 11 10 345 355
352 353 351 350 347 344 340 337 335 336 336 338 339 342 342 346 350 357 5 4 4 359 10 31 84 173 173 158 149 166 165 158 174 162 99 144 180 142 24 13 17 16 25
358 360 359 357 355 352 348 344 341 337 335 334 334 334 337 338 345 349 351 357 357 344 353 11 41 82 99 164 113 102 90 97 100 74 73 126 198 339 4 4 359 20 94
5 4 1 357 354 350 346 343 341 339 337 334 332 332 330 333 337 339 345 350 353 343 351 4 3 24 141 182 127 131 141 112 69 68 151 191 198 357 342 354 357 4 352
7 1 360 359 352 348 347 342 338 335 333 334 335 335 333 329 330 335 340 344 347 345 336 7 0 2 359 46 95 146 141 158 176 103 198 215 206 345 328 330 334 332 321
6 0 356 355 350 346 342 340 338 336 331 327 330 331 331 330 329 331 334 333 339 347 352 0 4 6 2 352 20 32 190 187 179 121 152 200 194 359 353 338 325 324 318
1 356 353 350 349 348 344 339 338 336 334 329 326 326 328 327 328 329 329 325 325 331 348 351 11 12 353 342 338 2 204 187 79 74 150 188 125 58 14 356 340 331 325
352 350 350 348 345 343 343 341 340 337 334 334 330 327 326 326 326 326 327 323 321 326 329 344 349 5 4 353 336 334 9 167 106 84 37 39 33 27 46 92 90 1 334
348 347 346 344 342 343 341 341 338 335 333 332 328 328 329 326 323 322 326 326 321 320 323 322 337 350 358 2 352 327 327 295 94 92 48 23 18 43 70 93 144 135 117
348 346 344 343 341 338 337 336 335 334 332 331 330 329 327 333 324 316 323 324 324 317 314 316 331 337 344 351 354 342 320 309 83 32 52 28 21 53 114 74 54 41 19
345 342 341 339 337 335 334 331 332 331 329 327 325 322 323 333 335 323 316 309 307 308 312 310 311 312 311 319 303 271 323 318 358 37 23 48 29 66 67 25 12 14 32
341 339 338 337 334 332 330 330 329 329 326 325 321 317 316 315 316 316 313 308 302 305 301 302 306 307 305 276 296 324 329 319 321 328 359 63 36 46 69 57 56 50 44
341 339 338 336 334 332 332 330 327 327 328 322 320 319 316 313 314 313 310 305 302 299 294 294 299 305 304 303 304 311 315 316 319 313 333 33 59 48 37 65 68 61 52
341 341 340 338 335 334 333 331 332 331 329 327 324 321 320 318 314 310 306 303 300 298 294 288 287 288 290 296 293 292 299 306 307 312 321 359 31 12 51 82 93 77 75
340 340 339 339 337 334 334 331 328 330 330 328 324 323 323 319 317 311 305 301 299 300 298 295 284 281 281 286 290 285 279 289 304 303 294 330 349 7 31 69 105 114 112
338 337 337 337 336 334 333 331 330 327 326 326 326 322 321 321 319 311 307 302 301 298 294 292 289 284 284 282 290 282 279 276 288 295 299 303 328 14 52 51 93 128 120
338 338 337 335 335 333 332 333 331 330 327 325 324 323 321 324 318 310 309 305 302 300 296 290 288 286 283 281 280 283 288 270 274 281 282 292 298 347 72 50 94 124 122
337 336 336 335 334 334 333 332 331 330 328 328 326 324 324 322 317 314 315 310 306 302 297 294 289 286 284 281 276 275 281 275 281 277 268 283 277 279 259 135 100 116 158
337 337 336 334 333 334 332 331 331 329 328 328 327 327 329 324 317 317 314 312 308 304 300 296 291 287 284 281 276 269 273 271 274 283 267 259 269 263 253 229 139 266 267
335 335 334 333 332 332 332 332 331 329 329 329 328 327 328 325 324 319 314 313 312 310 304 298 292 288 284 279 277 269 265 265 266 274 271 263 256 257 245 235 244 235 242
332 334 333 333 334 334 334 333 331 331 330 330 329 327 325 324 323 318 313 314 314 311 313 307 299 290 285 280 277 272 264 263 263 266 268 262 267 247 242 233 232 231 238
332 332 332 335 336 335 334 335 334 334 333 332 330 328 324 324 321 316 311 313 314 314 312 311 305 300 292 285 276 271 268 261 259 264 265 262 258 259 242 236 228 234 228
332 334 334 335 335 335 336 337 337 336 334 332 330 327 321 320 320 315 311 312 311 312 311 310 307 303 297 292 282 274 267 265 259 259 264 261 253 252 251 235 231 229 230
334 335 335 336 336 336 336 336 336 336 334 331 329 325 319 316 317 314 313 310 311 309 311 309 308 306 301 297 290 284 276 266 261 257 256 255 253 243 245 243 230 229 227